Regional Weather Roundup
Issued by NWS

Home | Current Version | Previous Version | Text Only | Print | Product List | Glossary Off
Versions: 1 2 3 4 5 6 7 8 9 10 11 12 13 14 15 16 17 18 19 20 21 22 23 24 25 26 27 28 29 30 31 32 33 34 35 36 37 38 39 40 41 42 43 44 45 46 47 48 49 50

413
ASUS45 KBOU 041107
RWRCO

WEATHER ROUNDUP FOR COLORADO
NATIONAL WEATHER SERVICE DENVER/BOULDER CO
500 AM MDT WED MAY 04 2016

NOTE: "FAIR" INDICATES FEW OR NO CLOUDS BELOW 12000 FEET WITH NO
SIGNIFICANT WEATHER AND/OR OBSTRUCTIONS TO VISIBILITY.

COZ001>005-013-030-031-041200-
...NORTHWEST COLORADO...

CITY           SKY/WX    TMP DP  RH WIND       PRES   REMARKS
CRAIG          FAIR      31  27  85 SW5       30.29S WCI  26
HAYDEN         FAIR      39  27  60 E10       30.30S
MEEKER         FAIR      33  27  78 NE6       30.30S WCI  28
MOUNT WERNER   NOT AVBL
STEAMBOAT SPGS FAIR      34  28  80 CALM      30.32F
WALDEN         FAIR      28  23  80 SE7       30.39S WCI  21
$$

COZ006>008-011-041200-
...WEST CENTRAL VALLEYS...

CITY           SKY/WX    TMP DP  RH WIND       PRES   REMARKS
GRAND JUNCTION FAIR      47  32  56 E10       30.21S
MONTROSE       FAIR      42  29  59 S6        30.28F
EAGLE          FAIR      36  27  69 SE3       30.37F
RIFLE          FAIR      39  31  72 SE3       30.28R
DELTA          NOT AVBL
NUCLA          NOT AVBL
$$

COZ017>023-064>068-041200-
...SOUTHWEST COLORADO...

CITY           SKY/WX    TMP DP  RH WIND       PRES   REMARKS
DURANGO        FAIR      37  32  82 CALM      30.31S
CORTEZ         FAIR      33  27  78 CALM      30.27S
PAGOSA SPRINGS FAIR      35  32  90 CALM      30.37F
TELLURIDE      FAIR      39  26  59 SE6       30.42F
WOLF CREEK PAS FAIR      30  19  64 SW10      30.55F WCI  21
$$

COZ009-010-012-014-032>034-037-058>063-041200-
...CENTRAL COLORADO...

CITY           SKY/WX    TMP DP  RH WIND       PRES   REMARKS
ASPEN          FAIR      34  23  64 SW7       30.35F WCI  28
BUENA VISTA    FAIR      31  23  71 CALM      30.40S
COPPER MTN     NOT AVBL
BERTHOUD PASS  FAIR      27  18  69 NW18      30.52S WCI  13
COTTONWOOD PAS FAIR      43  10  26 CALM      30.44S
GUNNISON       FAIR      30  21  69 CALM      30.42S
KREMMLING      FAIR      30  23  74 CALM      30.41R
LEADVILLE      FAIR      23  14  68 N5        30.44S WCI  17
MONARCH PASS   FAIR      30  12  47 W18       30.61F WCI  18
SALIDA         FAIR      35  24  66 W3        30.46F
SUNLIGHT       FAIR      37  21  52 CALM      30.50F
WILKERSON PASS FAIR      32  16  51 W7        30.50F WCI  26
$$

COZ069>075-041200-
...SAN LUIS VALLEY/SANGRE DE CRISTO MOUNTAINS...

CITY           SKY/WX    TMP DP  RH WIND       PRES   REMARKS
ALAMOSA        FAIR      32  27  81 NW3       30.38R
LA VETA PASS   FAIR      34  18  51 S6        30.44F WCI  29
SAGUACHE       FAIR      34  23  64 N13       30.40S WCI  25
$$

COZ035-036-038>040-041200-
...NORTHERN COLORADO FRONT RANGE...

CITY           SKY/WX    TMP DP  RH WIND       PRES   REMARKS
DENVER INTL AP FAIR      44  28  53 SW14      30.24F
DMNS CITY PARK   N/A     45  29  52 SE7       30.25S
AURORA         FAIR      42  30  61 S8        30.26F
FRONT RANGE AP NOT AVBL
ERIE MUNI ARPT FAIR      36  34  94 SW3       30.24S
BOULDER MUN AP FAIR      48  30  49 CALM      30.24S
CENTENNIAL     FAIR      37  29  72 SE7       30.26F
BROOMFIELD     FAIR      45  32  61 CALM      30.25F
FORT COLLINS   FAIR      43  34  70 CALM      30.24S
LONGMONT       FAIR      39  33  77 SW3       30.25S HAZE
$$

COZ041-046-047-076>085-087-088-041200-
...PIKES PEAK/PALMER DIVIDE AND SOUTHERN FOOTHILLS...

CITY           SKY/WX    TMP DP  RH WIND       PRES   REMARKS
COLO. SPRINGS  FAIR      39  28  64 N9        30.30S
A. F. ACADEMY  FAIR      32  27  80 N8        30.29F WCI  25
SCHRIEVER AFB  NOT AVBL
ELLICOTT       FAIR     N/A N/A N/A CALM      30.28S
FALCON         NOT AVBL
FORT CARSON    FAIR      40  29  64 NW9       30.27S
LIMON          FAIR      39  33  79 N6        30.25S
MONUMENT HILL  FAIR      36  27  69 SW8       30.33R
TRINIDAD       FAIR      42  28  57 SW16      30.29S
$$

COZ042>045-048>051-090-091-041200-
...NORTHEAST COLORADO...

CITY           SKY/WX    TMP DP  RH WIND       PRES   REMARKS
GREELEY ARPT   FAIR      37  34  87 NE3       30.23S
AKRON          FAIR      43  36  76 W16       30.19F
BURLINGTON     FAIR      40  33  76 W10       30.18F
WRAY           NOT AVBL
STERLING       FAIR      36  34  93 CALM      30.18S
HOLYOKE        NOT AVBL
FORT MORGAN    FAIR      42  37  83 W12       30.21S
$$

COZ086-089-092>099-041200-
...SOUTHEAST COLORADO...

CITY           SKY/WX    TMP DP  RH WIND       PRES   REMARKS
PUEBLO         FAIR      43  32  65 W7        30.25S
LA JUNTA       FAIR      44  36  73 W16       30.21F
LAMAR          FAIR      40  37  89 W5        30.17S
SPRINGFIELD      N/A     42  34  73 W12       30.19S
$$




USA.gov is the U.S. government's official web portal to all federal, state and local government web resources and services.